Regional Weather Roundup
Issued by NWS Jackson, KY

Home | Current Version | Previous Version | Text Only | Print | Product List | Glossary On
Versions: 1 2 3 4 5 6 7 8 9 10 11 12 13 14 15 16 17 18 19 20 21 22 23 24 25 26 27 28 29 30 31 32 33 34 35 36 37 38 39 40 41 42 43 44 45 46 47 48 49 50
000
ASUS43 KJKL 261710
RWRJKL

EAST KENTUCKY HOURLY WEATHER ROUNDUP
NATIONAL WEATHER SERVICE JACKSON KY
100 PM EDT MON JUN 26 2017

NOTE: "FAIR" INDICATES FEW OR NO CLOUDS BELOW 12,000 FEET WITH
NO SIGNIFICANT WEATHER AND/OR OBSTRUCTIONS TO VISIBILITY.

* THESE REPORTS ARE NOT UNDER NWS QUALITY CONTROL AND MAY NOT
  REPORT WEATHER SUCH AS PRECIPITATION AND FOG.

KYZ079-080-083-085-087-088-110-112-115-119-120-261800
...EASTERN KENTUCKY...

CITY           SKY/WX    TMP DP  RH WIND       PRES   REMARKS
JACKSON        MOSUNNY   72  52  49 VRB6      30.18F
LONDON         SUNNY     74  50  42 W7        30.19F
SOMERSET*      SUNNY     73  46  38 W7        30.20F
MONTICELLO*    SUNNY     74  52  46 VRB7      30.21F
WILLIAMSBURG*  SUNNY     73  54  49 NW7       30.18F
MIDDLESBORO*   CLOUDY    77  51  40 W8        30.18F
HARLAN APT*    MOSUNNY   77  46  33 SW5       30.18F
PIKE CO APT*     N/A     73  53  49 SW9G16    30.17F
BIG SANDY APT* MOSUNNY   73  52  47 W3        30.17S
MOREHEAD APT*  MOSUNNY   72  46  40 NW12G18   30.19S HAZE
ASHLAND*       MOSUNNY   73  54  49 W8        30.13F
$$

KYZ035-036-041-042-044-050-067-078-099-261800
...CENTRAL KENTUCKY...

CITY           SKY/WX    TMP DP  RH WIND       PRES   REMARKS
MT STERLING*   MOSUNNY   72  50  46 NW3       30.19F
FLEMING/MASON* MOSUNNY   70  45  40 NW9       30.17F
DANVILLE*      MOSUNNY   72  46  40 NW7       30.20F
LEXINGTON      SUNNY     74  46  36 N12       30.18F
FRANKFORT      MOSUNNY   73  47  39 W7        30.17F
LOUISVILLE     MOSUNNY   76  46  34 VRB7G17   30.18F
LEBANON*         N/A    N/A N/A N/A MISG        N/A
GLASGOW*       SUNNY     75  49  38 W6        30.19F
BOWLING GREEN  SUNNY     77  51  40 W7        30.19F
$$

KYZ091>093-OHZ055-061-077-WVZ005-015-034-035-042-261800
...SOUTHERN OHIO/WEST VIRGINIA...

CITY           SKY/WX    TMP DP  RH WIND       PRES   REMARKS
COVINGTON      PTSUNNY   72  49  44 NW14G21   30.16F
COLUMBUS       PTSUNNY   71  50  47 NW17      30.10F
DAYTON         MOSUNNY   69  45  41 W16       30.15S
WILMINGTON     CLOUDY    68  49  50 NW16G23   30.14F
HUNTINGTON     MOSUNNY   72  48  42 W13G21    30.14F
CHARLESTON     MOSUNNY   75  51  43 W9        30.13F
PINEVILLE*     PTSUNNY   75  48  38 MISG      30.21F
BECKLEY        MOSUNNY   70  45  40 W20G26    30.18S
BLUEFIELD      MOSUNNY   69  47  45 W9        30.21F
LOGAN CO APT*    N/A     73  50  43 SW14G20   30.16S
$$

VAZ002-007-008-TNZ017-027-036-066-071-261800
...SOUTHWEST VIRGINIA/EAST TENNESSEE...

CITY           SKY/WX    TMP DP  RH WIND       PRES   REMARKS
WISE*          PTSUNNY   70  50  49 SW3       30.22F
JONESVILLE*      N/A     77  54  44 W8        30.19F
ABINGDON*      CLOUDY    74  50  43 W7        30.20F
BRISTOL        MOSUNNY   77  50  38 W13G20    30.18F
MORRISTOWN*    SUNNY     77  54  44 W9        30.18F
SEVIERVILLE*   SUNNY     81  48  32 W8        30.18F
KNOXVILLE      CLOUDY    75  51  43 SW5       30.17F
LAFOLLETTE*    SUNNY     77  55  47 VRB5      30.21F
OAK RIDGE      PTSUNNY   76  55  48 VRB5      30.19F
CROSSVILLE     CLOUDY    69  55  60 W5        30.23S
NASHVILLE      PTSUNNY   77  50  38 CALM      30.21F
$$

...KEY TO REMARKS...
VSB - VISIBILITY IN MILES
WCI - WIND CHILL INDEX
HX  - HEAT INDEX

$$



USA.gov is the U.S. government's official web portal to all federal, state and local government web resources and services.